FW4292 Weather Reports


Display with metric or nautical units.
time (UTC)temp
F
wind
direction
speed
MPH
gust
MPH
rain 1hr
in
rain 24hr
in
rain mn
in
humidity
%
barometer
mb
20260510230029 60 197 5.0 12.0 0.00 0.04 0.03 43 1014.0
20260510224523 60 193 5.0 11.0 0.00 0.06 0.03 48 1013.7
20260510223022 61 268 4.0 12.0 0.00 0.06 0.03 49 1013.6
20260510221527 62 217 5.0 14.0 0.00 0.06 0.03 48 1013.5
20260510220022 63 194 6.0 10.0 0.00 0.06 0.03 48 1013.2
20260510214519 63 273 5.0 11.0 0.00 0.07 0.03 51 1013.2
20260510213019 63 180 5.0 11.0 0.00 0.07 0.03 54 1013.1
20260510211518 63 198 6.0 14.0 0.00 0.07 0.03 55 1013.2
20260510210016 63 219 6.0 15.0 0.00 0.07 0.03 58 1013.0
20260510204520 64 250 6.0 13.0 0.00 0.14 0.03 60 1012.9
20260510203018 63 261 5.0 13.0 0.00 0.14 0.03 64 1013.1
20260510201510 62 201 5.0 10.0 0.00 0.14 0.03 65 1013.2
20260510200013 62 206 6.0 9.0 0.00 0.23 0.03 68 1013.5
20260510194506 61 257 5.0 8.0 0.00 0.23 0.03 69 1013.5
20260510193004 61 196 4.0 11.0 0.00 0.23 0.03 73 1013.6
20260510191503 60 225 5.0 9.0 0.00 0.23 0.03 74 1013.5
20260510184557 59 209 4.0 9.0 0.01 0.31 0.03 80 1013.7
20260510183053 56 267 1.0 6.0 0.01 0.31 0.03 86 1014.0
20260510181552 55 221 0.0 3.0 0.01 0.31 0.03 87 1014.0
20260510180104 55 84 0.0 1.0 0.00 0.30 0.02 87 1014.3
20260510174551 55 85 0.0 3.0 0.00 0.37 0.02 88 1014.0
20260510173050 54 86 1.0 7.0 0.00 0.37 0.02 86 1014.0
20260510171555 55 35 1.0 4.0 0.00 0.37 0.02 84 1014.2
20260510170049 56 286 2.0 3.0 0.00 0.37 0.02 81 1014.1
20260510164555 56 162 1.0 2.0 0.00 0.38 0.02 79 1013.9
20260510163106 56 161 1.0 7.0 0.00 0.38 0.02 80 1014.2
20260510161558 55 172 4.0 7.0 0.00 0.38 0.02 81 1014.2
20260510160055 54 193 1.0 6.0 0.00 0.38 0.02 83 1014.3
20260510154546 54 210 4.0 7.0 0.00 0.38 0.02 83 1014.1
20260510153046 54 211 4.0 9.0 0.00 0.38 0.02 86 1014.1
20260510151537 53 209 4.0 8.0 0.00 0.38 0.02 90 1014.4
20260510150033 51 184 3.0 5.0 0.00 0.38 0.02 91 1014.5
20260510144540 50 199 1.0 6.0 0.00 0.38 0.02 92 1014.5
20260510143044 50 163 3.0 7.0 0.00 0.38 0.02 92 1014.2
20260510141534 49 236 1.0 5.0 0.00 0.38 0.02 92 1014.6
20260510140021 49 229 4.0 5.0 0.00 0.38 0.02 93 1014.6
20260510134517 49 246 2.0 4.0 0.00 0.38 0.02 93 1014.3
20260510133023 49 219 0.0 2.0 0.00 0.38 0.02 93 1014.2
20260510131513 48 222 1.0 3.0 0.00 0.38 0.02 93 1014.3
20260510130010 47 222 1.0 3.0 0.00 0.38 0.02 92 1014.4
20260510124507 46 223 0.0 3.0 0.00 0.38 0.02 92 1014.2
20260510123006 46 222 1.0 4.0 0.00 0.38 0.02 92 1014.3
20260510121501 45 210 1.0 3.0 0.00 0.38 0.02 92 1014.0
20260510120100 45 211 0.0 3.0 0.00 0.38 0.02 92 1013.8
20260510114558 45 209 1.0 5.0 0.00 0.38 0.02 92 1014.2
20260510113108 44 215 2.0 4.0 0.00 0.38 0.02 92 1014.0
20260510111557 44 215 0.0 2.0 0.00 0.38 0.02 92 1013.9
20260510110053 44 215 0.0 3.0 0.00 0.38 0.02 92 1013.7
20260510104559 44 213 3.0 5.0 0.00 0.38 0.02 92 1013.5
20260510103051 43 355 1.0 3.0 0.00 0.38 0.02 92 1012.9
20260510101549 43 29 0.0 2.0 0.00 0.38 0.02 92 1012.5
20260510100048 43 26 0.0 3.0 0.00 0.38 0.02 92 1012.8
20260510094549 43 31 0.0 2.0 0.00 0.38 0.02 92 1012.5
20260510093101 43 31 1.0 4.0 0.00 0.38 0.02 92 1012.4
20260510091546 43 32 0.0 0.0 0.00 0.38 0.02 92 1012.5
20260510090049 42 31 2.0 5.0 0.00 0.38 0.02 92 1012.7
20260510084550 42 234 0.0 4.0 0.00 0.38 0.02 92 1012.7
20260510083048 43 234 0.0 2.0 0.00 0.38 0.02 92 1013.0
20260510081605 43 234 1.0 4.0 0.01 0.38 0.02 92 1012.9
20260510080041 43 275 1.0 5.0 0.02 0.38 0.02 92 1012.8
20260510074540 42 22 4.0 8.0 0.02 0.38 0.02 92 1012.2
20260510073051 42 59 4.0 6.0 0.02 0.38 0.02 91 1012.8
20260510071538 42 25 0.0 2.0 0.01 0.37 0.01 91 1013.4
20260510070038 43 25 0.0 2.0 0.00 0.36 0.00 91 1013.3
20260510064550 42 25 0.0 2.0 0.00 0.36 0.00 91 1013.3
20260510063041 43 25 1.0 2.0 0.00 0.36 0.00 91 1013.2
20260510061536 42 25 0.0 2.0 0.00 0.36 0.00 91 1013.3
20260510060042 42 25 1.0 5.0 0.00 0.36 0.00 91 1013.1
20260510054533 42 79 1.0 2.0 0.00 0.36 0.00 91 1013.1
20260510053039 42 79 0.0 0.0 0.00 0.36 0.00 91 1013.5
20260510051527 42 79 0.0 3.0 0.00 0.36 0.00 91 1013.7
20260510050026 42 79 1.0 3.0 0.00 0.36 0.00 91 1013.5
20260510044541 42 80 1.0 3.0 0.00 0.36 0.00 91 1013.7
20260510043023 42 80 2.0 5.0 0.00 0.36 0.00 91 1013.9
20260510041521 42 44 3.0 6.0 0.00 0.36 0.00 91 1013.7
20260510040034 42 88 1.0 7.0 0.00 0.36 0.00 91 1013.8
20260510034518 42 109 3.0 6.0 0.00 0.36 0.36 91 1013.8
20260510033018 42 92 2.0 7.0 0.00 0.36 0.36 91 1013.9
20260510031518 42 87 1.0 5.0 0.00 0.36 0.36 91 1014.1
20260510030017 42 74 1.0 6.0 0.00 0.36 0.36 91 1014.3
20260510024517 42 91 1.0 7.0 0.00 0.36 0.36 91 1014.4
20260510023015 42 83 1.0 7.0 0.00 0.36 0.36 91 1014.2
20260510021515 42 61 2.0 5.0 0.00 0.36 0.36 90 1014.6
20260510020019 42 107 5.0 15.0 0.00 0.36 0.36 90 1014.4
20260510014612 42 92 3.0 9.0 0.00 0.36 0.36 90 1014.4
20260510013012 42 74 1.0 5.0 0.00 0.36 0.36 90 1014.7
20260510011516 42 76 1.0 5.0 0.00 0.36 0.36 90 1014.8
20260510010010 42 54 5.0 10.0 0.00 0.36 0.36 90 1014.6
20260510004510 42 76 2.0 11.0 0.00 0.36 0.36 90 1014.5
20260510003010 42 151 3.0 8.0 0.01 0.36 0.36 90 1014.3
20260510001609 42 10 1.0 8.0 0.01 0.36 0.36 90 1014.0
20260510000015 43 55 2.0 7.0 0.01 0.36 0.36 90 1013.9
20260509234508 43 74 2.0 8.0 0.01 0.36 0.36 90 1013.8
20260509233008 43 34 2.0 9.0 0.00 0.35 0.35 89 1013.9
20260509231506 43 71 2.0 6.0 0.01 0.35 0.35 89 1013.8